This is the latest recevied weather packets stored in our database for station/object KC5DAQ-27. If no packets are shown the sender has not sent any weather packets the latest 1 day(s).
| Time | Temp. | Humidity | Pressure | Rain* | Wind** | Luminosity | Snow |
|---|---|---|---|---|---|---|---|
| 1777995842 | 24.44° C | 91% | 1000.8 hPa | 0 mm | 2.68 m/s, 171° | 157 W/m² | - |
| 1777995784 | 24.44° C | 91% | 1000.7 hPa | 0 mm | 3.13 m/s, 230° | 137 W/m² | - |
| 1777995722 | 24.44° C | 91% | 1000.8 hPa | 0 mm | 3.13 m/s, 196° | 125 W/m² | - |
| 1777995662 | 24.44° C | 91% | 1000.8 hPa | 0 mm | 3.58 m/s, 197° | 146 W/m² | - |
| 1777995602 | 24.44° C | 91% | 1000.9 hPa | 0 mm | 3.13 m/s, 183° | 155 W/m² | - |
| 1777995542 | 24.44° C | 91% | 1000.8 hPa | 0 mm | 3.58 m/s, 195° | 167 W/m² | - |
| 1777995482 | 24.44° C | 91% | 1000.8 hPa | 0 mm | 3.58 m/s, 171° | 216 W/m² | - |
| 1777995423 | 24.44° C | 91% | 1000.8 hPa | 0 mm | 3.13 m/s, 195° | 211 W/m² | - |
| 1777995363 | 24.44° C | 91% | 1000.8 hPa | 0 mm | 4.02 m/s, 192° | 206 W/m² | - |
| 1777995302 | 24.44° C | 91% | 1000.9 hPa | 0 mm | 4.02 m/s, 189° | 199 W/m² | - |
| 1777995243 | 24.44° C | 91% | 1000.8 hPa | 0 mm | 3.58 m/s, 195° | 183 W/m² | - |
| 1777995183 | 24.44° C | 91% | 1000.8 hPa | 0 mm | 3.13 m/s, 151° | 181 W/m² | - |
| 1777995123 | 24.44° C | 91% | 1000.7 hPa | 0 mm | 3.13 m/s, 172° | 185 W/m² | - |
| 1777995062 | 24.44° C | 91% | 1000.8 hPa | 0 mm | 2.68 m/s, 173° | 181 W/m² | - |
| 1777995003 | 24.44° C | 91% | 1000.8 hPa | 0 mm | 4.02 m/s, 227° | 186 W/m² | - |
| 1777994943 | 24.44° C | 91% | 1000.8 hPa | 0 mm | 4.02 m/s, 180° | 195 W/m² | - |
| 1777994882 | 24.44° C | 91% | 1000.7 hPa | 0 mm | 3.58 m/s, 186° | 199 W/m² | - |
| 1777994822 | 24.44° C | 91% | 1000.8 hPa | 0 mm | 3.13 m/s, 196° | 186 W/m² | - |
| 1777994773 | 24.44° C | 91% | 1000.7 hPa | 0 mm | 3.13 m/s, 185° | 144 W/m² | - |
| 1777994703 | 24.44° C | 91% | 1000.7 hPa | 0 mm | 4.02 m/s, 192° | 144 W/m² | - |
| 1777994643 | 24.44° C | 91% | 1000.7 hPa | 0 mm | 3.13 m/s, 178° | 158 W/m² | - |
| 1777994583 | 24.44° C | 91% | 1000.7 hPa | 0 mm | 2.68 m/s, 164° | 160 W/m² | - |
| 1777994522 | 24.44° C | 91% | 1000.6 hPa | 0 mm | 2.68 m/s, 179° | 178 W/m² | - |
| 1777994462 | 24.44° C | 91% | 1000.7 hPa | 0 mm | 1.79 m/s, 158° | 164 W/m² | - |
| 1777994402 | 24.44° C | 91% | 1000.6 hPa | 0 mm | 2.24 m/s, 178° | 162 W/m² | - |
* Rain latest hour (hover to see other rain measurements)
** Current wind speed in m/s (hover to see current wind gust speed)